Regional Weather Roundup
Issued by NWS

Home | Current Version | Previous Version | Text Only | Print | Product List | Glossary On
Versions: 1 2 3 4 5 6 7 8 9 10 11 12 13 14 15 16 17 18 19 20 21 22 23 24 25 26 27
000
ASUS45 KCYS 290610
RWRWY

WYOMING REGIONAL WEATHER ROUNDUP
NATIONAL WEATHER SERVICE CHEYENNE WY
1200 AM MDT SUN MAY 29 2016

NOTE:  "FAIR" INDICATES FEW OR NO CLOUDS BELOW 12,000 FEET
WITH NO SIGNIFICANT WEATHER AND/OR OBSTRUCTIONS TO VISIBILITY.

WYZ001-290700-
YELLOWSTONE NATIONAL PARK

CITY           SKY/WX    TMP DP  RH WIND       PRES   REMARKS
LK YELLOWSTONE   N/A     31  27  85 NW3       30.24R
6HR MIN TEMP:  31; 6HR MAX TEMP:  49;

W YELLOWSTONE  NOT AVBL

$$
WYZ002>013-054>058-071-098>099-290700-
NORTHERN WYOMING

CITY           SKY/WX    TMP DP  RH WIND       PRES   REMARKS
JACKSON        FAIR      36  30  80 N7        30.17S WCI  30
CODY           FAIR      48  43  81 CALM      30.10R
GREYBULL       FAIR      57  42  57 W14       30.03R
6HR MIN TEMP:  57; 6HR MAX TEMP:  72;

WORLAND        FAIR      56  43  61 E8        30.04R
6HR MIN TEMP:  56; 6HR MAX TEMP:  71;

SHERIDAN       FAIR      48  44  86 CALM      30.07R
6HR MIN TEMP:  46; 6HR MAX TEMP:  68;

BUFFALO        MOCLDY    54  45  71 W5        30.10F
GILLETTE       MOCLDY    46  42  86 S6        30.08R
6HR MIN TEMP:  41; 6HR MAX TEMP:  68;

HULETT         FAIR      48  41  76 S8        30.09S
NEWCASTLE      FAIR      46  41  81 SE7       30.10S

$$
WYZ014>020-022>026-101>103-290700-
CENTRAL WYOMING

CITY           SKY/WX    TMP DP  RH WIND       PRES   REMARKS
BIG PINEY      FAIR      40  29  64 CALM      30.20R
6HR MIN TEMP:  38; 6HR MAX TEMP:  61;

PINEDALE       FAIR      34  30  86 CALM      30.21R
DUBOIS         FAIR      39  21  48 W8        30.18R WCI  34
LANDER         FAIR      55  24  30 SW3       30.09R
6HR MIN TEMP:  51; 6HR MAX TEMP:  69;

RIVERTON       FAIR      51  36  56 NW12      30.09R
6HR MIN TEMP:  49; 6HR MAX TEMP:  71;

CASPER         FAIR      46  42  86 CALM      30.08R
6HR MIN TEMP:  44; 6HR MAX TEMP:  66;

DOUGLAS          N/A    N/A N/A N/A MISG      30.11S

$$
WYZ021-027>030-104>119-290700-
SOUTHERN WYOMING

CITY           SKY/WX    TMP DP  RH WIND       PRES   REMARKS
EVANSTON       FAIR      50  28  42 SE3       30.20S
6HR MIN TEMP:  49; 6HR MAX TEMP:  62;

KEMMERER         N/A     43  30  61 NW5       30.21S
FORT BRIDGER   CLEAR     48  32  53 SW6       30.23S
ROCK SPRINGS   FAIR      48  37  65 W10       30.19R
6HR MIN TEMP:  47; 6HR MAX TEMP:  59;

DIXON          MOCLDY    50  39  66 NE8       30.22S
RAWLINS        FAIR      50  34  54 W9        30.18R
6HR MIN TEMP:  45; 6HR MAX TEMP:  63;

SARATOGA       FAIR      43  36  75 S12       30.22R
LARAMIE        CLOUDY    48  36  63 S10       30.21R
6HR MIN TEMP:  44; 6HR MAX TEMP:  61; 6HR PCP: TRACE;

CHEYENNE       FAIR      52  39  61 SW12      30.16R
6HR MIN TEMP:  51; 6HR MAX TEMP:  66;

TORRINGTON     FAIR      50  46  86 E7        30.09R
6HR MIN TEMP:  50; 6HR MAX TEMP:  72;

PINE BLUFFS    FAIR      45  43  93 S6        30.13S

$$




USA.gov is the U.S. government's official web portal to all federal, state and local government web resources and services.